Tracking 31027 objects as of 19-Jul-2025
HD Live streaming from Space Station
objects crossing your sky now

STARLINK-5298

Track STARLINK-5298 now!
10-day predictions
STARLINK-5298 is classified as:


NORAD ID: 55281
Int'l Code: 2023-010N
Perigee: 576.6 km
Apogee: 581.8 km
Inclination: 70.0 °
Period: 96.1 minutes
Semi major axis: 6950 km
RCS: Unknown
Launch date: January 19, 2023
Source: United States (US)
Launch site: AIR FORCE WESTERN TEST RANGE (AFWTR)
Your satellite tracking list
FLOCK 4X 28
Track 1 satellite(s)




NASA's NSSDC Master Catalog

Two Line Element Set (TLE):
1 55281U 23010N   25199.61096619 -.00000300  00000-0 -17343-4 0  9998
2 55281  69.9995 274.6341 0003745 268.4696  91.6034 14.98328801137713
Source of the keplerian elements: AFSPC